sat.trackr.live / text

‹ back to catalog

STARLINK-36369

NORAD 67723 · 2026-026C

PAYLOAD ACTIVE UNKNOWN

§ Identity

Operator
Country
US
Launch date
2026-02-11
Launch site
AFWTR
Launch vehicle
Mass (kg)
RCS (m²)

Purposes: comms

External: N2YO · Heavens-Above · Gunter

§ Orbital elements

Epoch: 2026-09-19T21:26:40.346592Z

Period
93.91 min
Inclination
97.2859°
Eccentricity
0.0001132
Mean motion
15.33447491 rev/d
Perigee alt
464.8 km
Apogee alt
466.3 km
Semi-major
6,843.7 km
B*
5.4531e-4
RAAN
314.6712°
Arg perigee
86.2675°
Mean anomaly
273.8697°
Rev number
3,388

§ Raw data

STARLINK-363691 67723U 26026C   26262.89352253  .00017572  00000+0  54531-3 0  99982 67723  97.2859 314.6712 0001132  86.2675 273.8697 15.33447491 33887

JSON: /api/v1/satellites/67723 · /tle

For live sub-satellite position, see the globe view (requires WebGL).

§ Visibility from observer

Set your observer location to see the next 7 days of passes ≥ 10°. The values pass through the URL so the page stays shareable.

No JS? Fill the form by hand. The geolocation button needs JavaScript.